[[{"header":{"parameterUnit":"m.s-1","parameterCategory":1,"la1":30.2991,"la2":30.254,"lo1":-89.0895,"lo2":-89.0444,"dy":0.0017,"dx":0.0017,"nx":28,"ny":28,"refTime":"2025-01-28T09:00:00:Z","depth":0,"parameterNumber":2,"parameterNumberName":"U-component_of_WINDS"},"data":[0,0,0,0,0,0,0,0,0,0,0,0,0,0,0,0,0,0,0,0,0,0,0,0,0,0,0,0,0,0,0,0,0,0,0,0,0,0,0,0,0,0,0,0,0,0,0,0,0,0,0,0,0,0,0,0,0,0,-1.1824,-1.1824,0,-1.1863,-1.1863,-1.1864,-1.1828,-1.1826,-1.1825,-1.1824,-1.1866,-1.1868,-1.1871,0,0,0,0,0,0,0,0,0,0,0,0,0,-1.1721,-1.1723,-1.1824,-1.1824,-1.1825,-1.1863,-1.1863,-1.1864,-1.1828,-1.1826,-1.1825,-1.1823,-1.1865,-1.1868,-1.1871,0,0,0,0,0,0,0,0,0,0,0,0,0,-1.1763,-1.1723,-1.1824,-1.1812,-1.1811,-1.1863,-1.1863,-1.1864,-1.1829,-1.1826,-1.1824,-1.1822,-1.1864,-1.1868,-1.1871,-1.1938,0,0,-1.1883,-1.1884,0,0,0,0,0,0,0,0,-1.1761,-1.1767,-1.1813,-1.1813,-1.1812,-1.1838,-1.1842,-1.1889,-1.1829,-1.1822,-1.1824,-1.1821,-1.1859,-1.1863,-1.1875,-1.194,-1.1942,-1.1883,-1.1885,-1.1887,-1.1888,0,0,0,0,0,0,0,-1.1758,-1.1765,-1.1839,-1.1814,-1.1813,-1.1805,-1.1808,-1.1851,-1.1852,-1.1822,-1.182,-1.1825,-1.1858,-1.1871,-1.1876,-1.1942,-1.1883,-1.1886,-1.1889,-1.189,-1.2064,-1.2067,0,0,0,0,0,0,-1.1756,-1.1763,-1.1838,-1.1841,-1.178,-1.1808,-1.1812,-1.1832,-1.1852,-1.1852,-1.1827,-1.1823,-1.1866,-1.1871,-1.1877,-1.1957,-1.1887,-1.189,-1.1892,-1.2062,-1.2065,-1.2067,0,0,0,0,0,0,-1.1754,-1.1763,-1.1837,-1.1801,-1.181,-1.1812,-1.1835,-1.1834,-1.1847,-1.1855,-1.1855,-1.184,-1.1864,-1.1872,-1.1923,-1.1958,-1.1892,-1.1895,-1.2059,-1.2063,-1.2066,-1.2116,0,0,0,0,0,0,-1.1751,-1.1762,-1.1787,-1.1802,-1.1812,-1.1882,-1.1837,-1.1836,-1.1854,-1.1849,-1.1867,-1.1868,-1.1863,-1.1918,-1.1927,-1.1961,-1.1898,-1.2056,-1.2061,-1.2065,-1.2112,-1.2121,-1.2129,0,0,0,0,0,-1.1748,-1.1801,-1.1789,-1.1798,-1.1843,-1.1884,-1.1889,-1.1882,-1.1856,-1.1882,-1.1887,-1.1868,-1.1952,-1.1923,-1.1933,-1.197,-1.2054,-1.2059,-1.2065,-1.2108,-1.2119,-1.2129,0,0,0,0,0,0,-1.1791,-1.1802,-1.179,-1.1849,-1.1865,-1.1878,-1.191,-1.1895,-1.192,-1.1915,-1.1905,-1.1909,-1.1964,-1.1971,-1.1939,-1.2035,-1.1999,-1.2006,-1.2028,-1.2039,-1.2048,-1.2046,-1.1901,0,0,0,0,0,-1.1807,-1.1839,-1.1847,-1.1898,-1.1907,-1.1907,-1.1925,-1.1917,-1.1935,-1.1942,-1.195,-1.1968,-1.1999,-1.2019,-1.2048,-1.2112,-1.2116,-1.2142,-1.2151,-1.2158,-1.2165,-1.2201,-1.2212,-1.2085,-1.2085,-1.2085,0,0,-1.1842,-1.1852,-1.1872,-1.1907,-1.192,-1.1953,-1.1913,-1.1951,-1.1976,-1.1948,-1.1997,-1.2003,-1.2023,-1.2081,-1.2107,-1.2089,-1.2201,-1.2165,-1.2171,-1.2174,-1.2207,-1.2219,-1.223,-1.2089,-1.2088,-1.2088,0,0,-1.1922,-1.1932,-1.1976,-1.1989,-1.2008,-1.2007,-1.2017,-1.2032,-1.2035,-1.2084,-1.2063,-1.2093,-1.2146,-1.2161,-1.2175,-1.226,-1.2244,-1.227,-1.2317,-1.2351,-1.2361,-1.237,-1.2401,-1.2413,-1.2276,-1.2277,-1.2277,0,-1.1963,-1.2012,-1.2001,-1.204,-1.2056,-1.2031,-1.2076,-1.2089,-1.2117,-1.2129,-1.2108,-1.2173,-1.2185,-1.2246,-1.2267,-1.2279,-1.2292,-1.2268,-1.236,-1.2369,-1.2377,-1.2407,-1.2419,-1.228,-1.2279,-1.2279,-1.2279,0,-1.2062,-1.2096,-1.2129,-1.2156,-1.2175,-1.2217,-1.2213,-1.2235,-1.2225,-1.2227,-1.2277,-1.229,-1.2321,-1.2334,-1.2326,-1.2395,-1.2383,-1.2362,-1.2325,-1.2393,-1.2421,-1.2432,-1.2284,-1.2283,-1.2282,-1.2281,0,0,-1.2172,-1.2191,-1.2203,-1.2215,-1.2233,-1.226,-1.23,-1.2329,-1.2349,-1.2368,-1.2402,-1.2447,-1.2427,-1.2443,-1.2436,-1.2466,-1.2534,-1.2441,-1.2441,-1.2459,-1.2612,-1.2629,-1.2642,-1.2522,-1.2524,-1.2526,-1.261,0,-1.2253,-1.2323,-1.2315,-1.2382,-1.2414,-1.239,-1.2425,-1.2441,-1.2443,-1.2471,-1.2474,-1.2506,-1.2477,-1.2486,-1.2515,-1.252,-1.2565,-1.2513,-1.2556,-1.2557,-1.2553,-1.2656,-1.2675,-1.2754,-1.2621,-1.2623,-1.2624,0,-1.2358,-1.2381,-1.2451,-1.2464,-1.2477,-1.2509,-1.2535,-1.2562,-1.2579,-1.2578,-1.2596,-1.2584,-1.2625,-1.2587,-1.2644,-1.2609,-1.2626,-1.2631,-1.2633,-1.2638,-1.2596,-1.2665,-1.2778,-1.2791,-1.2641,-1.264,-1.2638,0,-1.2433,-1.2481,-1.2529,-1.2539,-1.2556,-1.2579,-1.2587,-1.2601,-1.262,-1.2642,-1.2654,-1.2682,-1.2697,-1.2719,-1.2714,-1.2687,-1.2773,-1.2734,-1.2775,-1.2775,-1.2796,-1.2795,-1.2914,-1.2804,-1.2804,-1.2804,-1.2803,0,-1.2526,-1.257,-1.2563,-1.2593,-1.2642,-1.2631,-1.268,-1.2685,-1.2698,-1.2729,-1.271,-1.2739,-1.2731,-1.276,-1.2757,-1.2805,-1.2812,-1.2813,-1.2812,-1.2816,-1.2816,-1.2828,-1.2823,-1.2807,-1.2806,-1.2806,-1.2805,0,-1.2619,-1.2615,-1.2666,-1.2677,-1.2681,-1.2717,-1.2726,-1.2755,-1.2755,-1.2794,-1.2803,-1.2804,-1.2837,-1.2834,-1.2872,-1.2869,-1.293,-1.2921,-1.2924,-1.2923,-1.2964,-1.2961,-1.3097,-1.3114,-1.2992,-1.2993,-1.2994,0,-1.2679,-1.2712,-1.2726,-1.2745,-1.2755,-1.2785,-1.2803,-1.2794,-1.2814,-1.2835,-1.2861,-1.2893,-1.2918,-1.2972,-1.2977,-1.3006,-1.2999,-1.3044,-1.3003,-1.3006,-1.3001,-1.2999,-1.3003,-1.3053,-1.3054,-1.3055,-1.3056,0,-1.2787,-1.2783,-1.2809,-1.2835,-1.2857,-1.2877,-1.2896,-1.2912,-1.2905,-1.2928,-1.2962,-1.2981,-1.3019,-1.3051,-1.3078,-1.3087,-1.3071,-1.3069,-1.308,-1.3085,-1.3086,-1.3087,-1.2948,-1.3066,-1.3065,-1.3065,-1.3064,-1.3064,-1.2866,-1.2894,-1.2909,-1.2939,-1.2951,-1.2969,-1.2996,-1.2999,-1.3026,-1.3056,-1.3049,-1.3087,-1.3103,-1.3138,-1.3149,-1.3179,-1.3163,-1.3179,-1.3183,-1.3188,-1.3193,-1.308,-1.3184,-1.3184,-1.3183,-1.3183,-1.3183,0,-1.2974,-1.2981,-1.3009,-1.3035,-1.3058,-1.304,-1.3059,-1.308,-1.3114,-1.3129,-1.3154,-1.3193,-1.3223,-1.323,-1.3259,-1.3282,-1.3275,-1.329,-1.3289,-1.3292,-1.3205,-1.3193,-1.3295,-1.3295,-1.3295,-1.3295,-1.3295,-1.3295,-1.3033,-1.308,-1.3078,-1.3132,-1.3139,-1.3176,-1.3189,-1.3205,-1.3217,-1.3261,-1.3286,-1.3289,-1.3302,-1.3332,-1.3359,-1.336,-1.3372,-1.339,-1.3389,-1.3309,-1.3298,-1.3287,-1.3276,-1.3393,-1.3393,-1.3473,-1.3473,-1.3474]},{"header":{"parameterUnit":"m.s-1","parameterCategory":1,"la1":30.2991,"la2":30.254,"lo1":-89.0895,"lo2":-89.0444,"dy":0.0017,"dx":0.0017,"nx":28,"ny":28,"refTime":"2025-01-28T09:00:00:Z","depth":0,"parameterNumber":3,"parameterNumberName":"V-component_of_WINDS"},"data":[0,0,0,0,0,0,0,0,0,0,0,0,0,0,0,0,0,0,0,0,0,0,0,0,0,0,0,0,0,0,0,0,0,0,0,0,0,0,0,0,0,0,0,0,0,0,0,0,0,0,0,0,0,0,0,0,0,0,-2.9544,-2.9544,0,-2.9567,-2.9567,-2.9567,-2.9513,-2.9511,-2.9509,-2.9508,-2.9531,-2.9533,-2.9535,0,0,0,0,0,0,0,0,0,0,0,0,0,-2.9452,-2.9454,-2.9544,-2.9544,-2.9545,-2.9567,-2.9567,-2.9568,-2.9513,-2.9511,-2.9509,-2.9507,-2.953,-2.9532,-2.9535,0,0,0,0,0,0,0,0,0,0,0,0,0,-2.9485,-2.9455,-2.9544,-2.952,-2.9518,-2.9567,-2.9567,-2.9568,-2.9514,-2.9511,-2.9508,-2.9506,-2.9529,-2.9532,-2.9535,-2.9608,0,0,-2.9546,-2.9547,0,0,0,0,0,0,0,0,-2.9483,-2.9489,-2.9523,-2.9522,-2.952,-2.9534,-2.9543,-2.9581,-2.9514,-2.9515,-2.9508,-2.9505,-2.9534,-2.9537,-2.9547,-2.9609,-2.961,-2.9546,-2.9548,-2.9549,-2.955,0,0,0,0,0,0,0,-2.9481,-2.9487,-2.9553,-2.9524,-2.9522,-2.9508,-2.951,-2.955,-2.9539,-2.9515,-2.9511,-2.9515,-2.9532,-2.9544,-2.9547,-2.961,-2.9546,-2.9549,-2.9551,-2.9552,-2.9733,-2.9736,0,0,0,0,0,0,-2.9482,-2.9486,-2.9552,-2.9554,-2.9495,-2.9512,-2.9514,-2.9532,-2.9538,-2.9537,-2.9517,-2.9512,-2.9539,-2.9543,-2.9547,-2.9633,-2.9549,-2.9552,-2.9554,-2.973,-2.9734,-2.9737,0,0,0,0,0,0,-2.948,-2.9488,-2.9551,-2.9519,-2.9526,-2.9516,-2.9537,-2.9534,-2.9545,-2.954,-2.9537,-2.953,-2.9537,-2.9543,-2.9593,-2.9633,-2.9554,-2.9557,-2.9727,-2.9731,-2.9735,-2.9805,0,0,0,0,0,0,-2.9478,-2.9488,-2.9516,-2.952,-2.9528,-2.9598,-2.954,-2.9537,-2.9551,-2.9545,-2.9552,-2.955,-2.9536,-2.9589,-2.9597,-2.9636,-2.956,-2.9723,-2.9729,-2.9734,-2.9799,-2.9811,-2.9821,0,0,0,0,0,-2.9475,-2.9534,-2.9518,-2.9526,-2.9562,-2.96,-2.9605,-2.9587,-2.9555,-2.9582,-2.9579,-2.955,-2.9627,-2.9594,-2.9603,-2.9644,-2.9721,-2.9727,-2.9733,-2.9794,-2.9808,-2.9821,0,0,0,0,0,0,-2.9536,-2.9535,-2.9516,-2.9579,-2.959,-2.9591,-2.9625,-2.9603,-2.9623,-2.9616,-2.9593,-2.9595,-2.965,-2.9651,-2.9615,-2.9714,-2.9668,-2.9677,-2.9711,-2.9725,-2.9736,-2.9735,-2.9562,0,0,0,0,0,-2.9556,-2.9588,-2.9585,-2.964,-2.9647,-2.9635,-2.9651,-2.9636,-2.9647,-2.9651,-2.9651,-2.9662,-2.9688,-2.9707,-2.9731,-2.9798,-2.9799,-2.983,-2.9841,-2.9851,-2.9859,-2.9895,-2.9909,-2.9757,-2.9757,-2.9757,0,0,-2.96,-2.9603,-2.9624,-2.9653,-2.966,-2.9692,-2.964,-2.9676,-2.97,-2.9656,-2.9705,-2.9705,-2.9715,-2.9775,-2.9801,-2.9778,-2.99,-2.9859,-2.9866,-2.9869,-2.9902,-2.9917,-2.993,-2.9762,-2.9761,-2.976,0,0,-2.9695,-2.9701,-2.9748,-2.9756,-2.9767,-2.9759,-2.977,-2.9774,-2.9773,-2.9821,-2.9789,-2.9816,-2.9862,-2.9871,-2.9882,-2.998,-2.9955,-2.9988,-3.0047,-3.0082,-3.0094,-3.0105,-3.0141,-3.0154,-2.9996,-2.9996,-2.9996,0,-2.9748,-2.9796,-2.9775,-2.9814,-2.9828,-2.9789,-2.9837,-2.9845,-2.9864,-2.9874,-2.9848,-2.9905,-2.9909,-2.997,-2.9994,-3.0004,-3.0016,-2.9988,-3.0094,-3.0104,-3.0114,-3.0148,-3.0161,-3.0,-3.0,-2.9999,-2.9999,0,-2.986,-2.9894,-2.9931,-2.995,-2.9967,-3.001,-2.9996,-3.0015,-2.9999,-2.9993,-3.0042,-3.0046,-3.007,-3.0083,-3.0067,-3.0142,-3.0128,-3.0098,-3.0052,-3.0133,-3.0164,-3.0177,-3.0006,-3.0005,-3.0004,-3.0002,0,0,-2.9997,-3.0003,-3.0017,-3.0025,-3.0034,-3.006,-3.01,-3.0124,-3.0142,-3.0156,-3.019,-3.0229,-3.0202,-3.0214,-3.0198,-3.0229,-3.0307,-3.0196,-3.0196,-3.0217,-3.0391,-3.0414,-3.043,-3.029,-3.0292,-3.0294,-3.039,0,-3.0092,-3.0163,-3.0145,-3.0216,-3.0247,-3.021,-3.0246,-3.0255,-3.025,-3.0275,-3.027,-3.0299,-3.026,-3.0267,-3.0296,-3.0292,-3.0342,-3.0284,-3.0322,-3.0323,-3.0322,-3.0446,-3.0471,-3.0562,-3.0403,-3.0405,-3.0406,0,-3.0214,-3.0232,-3.0306,-3.031,-3.0322,-3.0355,-3.0375,-3.0399,-3.0409,-3.0403,-3.0416,-3.0394,-3.0434,-3.0386,-3.0441,-3.0402,-3.0416,-3.0416,-3.0419,-3.0423,-3.0371,-3.0455,-3.059,-3.0604,-3.0425,-3.0424,-3.0422,0,-3.0307,-3.035,-3.04,-3.0408,-3.0413,-3.0437,-3.044,-3.0447,-3.0462,-3.048,-3.0489,-3.0511,-3.0523,-3.054,-3.0524,-3.0491,-3.0582,-3.0533,-3.0579,-3.058,-3.0601,-3.06,-3.0742,-3.0608,-3.0608,-3.0607,-3.0607,0,-3.0417,-3.0464,-3.0442,-3.0473,-3.0524,-3.0502,-3.0553,-3.0552,-3.0558,-3.0588,-3.0557,-3.0585,-3.0562,-3.0588,-3.0576,-3.0623,-3.0629,-3.0626,-3.0622,-3.0629,-3.063,-3.0639,-3.0633,-3.0611,-3.061,-3.0609,-3.0609,0,-3.0531,-3.0518,-3.057,-3.0571,-3.0572,-3.061,-3.061,-3.0638,-3.0631,-3.0669,-3.0676,-3.0665,-3.0694,-3.0679,-3.071,-3.0701,-3.0763,-3.075,-3.076,-3.0758,-3.0805,-3.0801,-3.0959,-3.0979,-3.083,-3.0832,-3.0833,0,-3.0602,-3.0638,-3.0642,-3.066,-3.0665,-3.0694,-3.0709,-3.0688,-3.0706,-3.0719,-3.0746,-3.0772,-3.0792,-3.0841,-3.0835,-3.0858,-3.0846,-3.0899,-3.0849,-3.0856,-3.0848,-3.0847,-3.0851,-3.091,-3.0912,-3.0913,-3.0915,0,-3.0731,-3.0723,-3.0747,-3.0769,-3.0788,-3.0804,-3.0817,-3.0834,-3.0813,-3.0834,-3.0864,-3.0879,-3.091,-3.0937,-3.0957,-3.0959,-3.0934,-3.093,-3.0942,-3.0951,-3.0956,-3.0955,-3.079,-3.0927,-3.0926,-3.0925,-3.0924,-3.0924,-3.0827,-3.0857,-3.0864,-3.0892,-3.0899,-3.0912,-3.0939,-3.0935,-3.0959,-3.0983,-3.0969,-3.1004,-3.1011,-3.1035,-3.1041,-3.1068,-3.1046,-3.1064,-3.1068,-3.1073,-3.108,-3.095,-3.1071,-3.1071,-3.107,-3.107,-3.107,0,-3.0955,-3.0958,-3.0983,-3.1003,-3.1025,-3.0998,-3.1011,-3.1031,-3.1062,-3.1071,-3.1092,-3.1126,-3.1151,-3.1147,-3.1171,-3.1193,-3.1182,-3.12,-3.1199,-3.12,-3.1097,-3.1085,-3.1208,-3.1208,-3.1208,-3.1208,-3.1208,-3.1208,-3.1024,-3.1074,-3.1066,-3.1119,-3.1121,-3.1155,-3.1165,-3.1177,-3.1184,-3.1223,-3.1245,-3.1241,-3.1245,-3.1268,-3.1291,-3.1289,-3.1299,-3.1322,-3.1316,-3.1221,-3.1207,-3.1194,-3.1183,-3.1324,-3.1324,-3.1416,-3.1417,-3.1418]}]]